Location: Newark
(48.6461°N, 4.3644°W)
Time: 09:10:52
(UTC+00:00)

Vanguard 3 - All Passes

Search period start: 22 January 2020 00:00
Search period end: 01 February 2020 00:00
Orbit: 507 x 3263 km, 33.4° (Epoch: 21 January)

Date Brightness Start Highest point End Pass type
(mag) Time Alt. Az. Time Alt. Az. Time Alt. Az.
22 Jan - 15:21:46 10° SSE 15:28:52 13° SE 15:35:45 10° ESE daylight
22 Jan - 17:26:19 10° SSW 17:41:58 31° SSE 17:54:57 10° E visible
22 Jan - 19:38:58 10° SW 19:55:58 42° S 20:07:46 10° ESE visible
22 Jan - 21:54:48 10° WSW 22:09:09 38° SSW 22:18:19 10° SE visible
23 Jan - 00:12:41 10° WSW 00:20:16 18° SW 00:25:50 10° S visible
23 Jan - 16:12:55 10° S 16:26:29 24° SE 16:38:55 10° E daylight
23 Jan - 18:23:04 10° SW 18:40:18 40° SSE 18:53:34 10° ESE visible
23 Jan - 20:37:40 10° WSW 20:54:15 43° S 21:05:14 10° ESE visible
23 Jan - 22:54:32 10° W 23:06:34 29° SSW 23:14:35 10° SSE visible
24 Jan - 15:01:56 10° SSE 15:11:20 16° SE 15:20:38 10° ESE daylight
24 Jan - 17:08:10 10° SSW 17:24:30 34° SSE 17:38:37 10° E visible
24 Jan - 19:21:03 10° WSW 19:38:45 45° S 19:51:32 10° ESE visible
24 Jan - 21:36:59 10° WSW 21:52:12 38° SSW 22:02:10 10° SE visible
24 Jan - 23:55:18 10° W 00:03:24 18° SW 00:09:28 10° S visible
25 Jan - 15:54:36 10° SSW 16:08:54 27° SE 16:22:35 10° E daylight
25 Jan - 18:05:10 10° SW 18:22:53 42° SSE 18:37:11 10° ESE visible
25 Jan - 20:19:50 10° WSW 20:37:06 44° S 20:49:00 10° ESE visible
25 Jan - 22:36:51 10° W 22:49:37 29° SSW 22:58:19 10° SSE visible
26 Jan - 14:43:01 10° S 14:53:45 18° SE 15:04:43 10° E daylight
26 Jan - 16:50:17 10° SSW 17:06:58 37° SSE 17:22:06 10° E daylight
26 Jan - 19:03:16 10° WSW 19:21:25 47° S 19:35:10 10° ESE visible
26 Jan - 21:19:12 10° W 21:35:06 39° SSW 21:45:54 10° SE visible
26 Jan - 23:37:57 10° W 23:46:25 18° SW 23:52:54 10° S visible
27 Jan - 15:36:38 10° SSW 15:51:17 29° SE 16:06:00 10° E daylight
27 Jan - 17:47:28 10° SW 18:05:24 45° SSE 18:20:40 10° ESE visible
27 Jan - 20:02:05 10° WSW 20:19:51 45° S 20:32:39 10° SE visible
27 Jan - 22:19:12 10° W 22:32:32 29° SW 22:41:54 10° SSE visible
28 Jan - 14:24:41 10° S 14:36:06 21° SE 14:48:19 10° E daylight
28 Jan - 16:32:38 10° SW 16:49:21 39° SSE 17:05:23 10° E daylight
28 Jan - 18:45:38 10° WSW 19:04:00 48° S 19:18:41 10° ESE visible
28 Jan - 21:01:29 10° W 21:17:53 38° SSW 21:29:29 10° SE visible
28 Jan - 23:20:37 10° W 23:29:19 17° SW 23:36:09 10° SSW visible
29 Jan - 13:17:03 10° SE 13:21:34 11° SE 13:26:17 10° ESE daylight
29 Jan - 15:18:58 10° SSW 15:33:37 32° SSE 15:49:11 10° E daylight
29 Jan - 17:29:58 10° SW 17:47:50 46° S 18:03:59 10° ESE visible
29 Jan - 19:44:28 10° WSW 20:02:29 45° SSW 20:16:10 10° SE visible
29 Jan - 22:01:35 10° W 22:15:19 28° SW 22:25:20 10° SSE visible
30 Jan - 14:06:48 10° S 14:18:28 23° SE 14:31:34 10° E daylight
30 Jan - 16:15:14 10° SW 16:31:43 42° SSE 16:48:32 10° E daylight
30 Jan - 18:28:09 10° WSW 18:46:30 49° S 19:02:03 10° ESE visible
30 Jan - 20:43:52 10° W 21:00:32 38° SSW 21:12:56 10° SE visible
30 Jan - 23:03:24 10° W 23:12:05 16° SW 23:19:07 10° SSW visible
31 Jan - 12:57:43 10° SSE 13:04:00 13° SE 13:10:53 10° ESE daylight
31 Jan - 15:01:34 10° SSW 15:15:58 34° SSE 15:32:09 10° E daylight
31 Jan - 17:12:38 10° WSW 17:30:14 48° S 17:47:09 10° ESE visible
31 Jan - 19:26:57 10° WSW 19:45:01 45° SSW 19:59:31 10° SE visible
31 Jan - 21:44:04 10° W 21:57:58 27° SW 22:08:34 10° SSE visible
